| time (UTC) | temp F | wind direction | speed MPH | gust MPH | rain 1hr in | rain 24hr in | rain mn in | humidity % | barometer mb |
| 20260906003530 | 83 | 243 | 0.0 | 4.0 | 0.00 | 0.00 | 0.00 | 85 | 1011.5 |
| 20260906003057 | 83 | 204 | 2.0 | 4.0 | 0.00 | 0.00 | 0.00 | 85 | 1011.3 |
| 20260906002524 | 84 | 0 | 0.0 | 3.0 | 0.00 | 0.00 | 0.00 | 85 | 1011.3 |
| 20260906002029 | 84 | 233 | 0.0 | 2.0 | 0.00 | 0.00 | 0.00 | 84 | 1011.3 |
| 20260906001553 | 84 | 233 | 1.0 | 3.0 | 0.00 | 0.00 | 0.00 | 84 | 1011.5 |
| 20260906001023 | 84 | 0 | 0.0 | 3.0 | 0.00 | 0.00 | 0.00 | 83 | 1011.4 |
| 20260906000524 | 84 | 0 | 1.0 | 4.0 | 0.00 | 0.00 | 0.00 | 83 | 1011.3 |
| 20260906000104 | 84 | 233 | 1.0 | 5.0 | 0.00 | 0.00 | 0.00 | 82 | 1011.3 |
| 20260905235532 | 84 | 222 | 2.0 | 7.0 | 0.00 | 0.00 | 0.00 | 82 | 1011.4 |
| 20260905235024 | 85 | 236 | 2.0 | 7.0 | 0.00 | 0.00 | 0.00 | 82 | 1011.3 |
| 20260905234554 | 85 | 241 | 2.0 | 7.0 | 0.00 | 0.00 | 0.00 | 82 | 1011.3 |
| 20260905234025 | 85 | 196 | 1.0 | 5.0 | 0.00 | 0.00 | 0.00 | 82 | 1011.3 |
| 20260905233529 | 85 | 231 | 2.0 | 5.0 | 0.00 | 0.00 | 0.00 | 82 | 1011.1 |
| 20260905233057 | 85 | 157 | 1.0 | 7.0 | 0.00 | 0.00 | 0.00 | 82 | 1011.1 |
| 20260905232525 | 85 | 246 | 2.0 | 7.0 | 0.00 | 0.00 | 0.00 | 82 | 1011.2 |
| 20260905232027 | 86 | 234 | 2.0 | 7.0 | 0.00 | 0.00 | 0.00 | 81 | 1011.2 |
| 20260905231554 | 86 | 244 | 2.0 | 7.0 | 0.00 | 0.00 | 0.00 | 81 | 1011.3 |
| 20260905231025 | 86 | 217 | 1.0 | 5.0 | 0.00 | 0.00 | 0.00 | 81 | 1011.3 |
| 20260905230524 | 87 | 261 | 2.0 | 5.0 | 0.00 | 0.00 | 0.00 | 81 | 1011.3 |
| 20260905230053 | 87 | 156 | 3.0 | 9.0 | 0.00 | 0.00 | 0.00 | 80 | 1011.4 |
| 20260905225525 | 87 | 171 | 4.0 | 9.0 | 0.00 | 0.00 | 0.00 | 79 | 1011.4 |
| 20260905225026 | 88 | 221 | 2.0 | 10.0 | 0.00 | 0.00 | 0.00 | 78 | 1011.5 |
| 20260905224605 | 88 | 179 | 3.0 | 10.0 | 0.00 | 0.00 | 0.00 | 78 | 1011.5 |
| 20260905224024 | 88 | 170 | 2.0 | 6.0 | 0.00 | 0.00 | 0.00 | 79 | 1011.3 |
| 20260905223529 | 88 | 186 | 2.0 | 6.0 | 0.00 | 0.00 | 0.00 | 78 | 1011.3 |
| 20260905223052 | 88 | 200 | 3.0 | 8.0 | 0.00 | 0.00 | 0.00 | 78 | 1011.4 |
| 20260905222525 | 88 | 246 | 2.0 | 8.0 | 0.00 | 0.00 | 0.00 | 78 | 1011.4 |
| 20260905222026 | 88 | 223 | 2.0 | 7.0 | 0.00 | 0.00 | 0.00 | 78 | 1011.4 |
| 20260905221547 | 88 | 185 | 3.0 | 7.0 | 0.00 | 0.00 | 0.00 | 77 | 1011.5 |
| 20260905221029 | 88 | 234 | 3.0 | 5.0 | 0.00 | 0.00 | 0.00 | 78 | 1011.6 |
| 20260905220528 | 88 | 172 | 2.0 | 9.0 | 0.00 | 0.00 | 0.00 | 78 | 1011.5 |
| 20260905220104 | 88 | 115 | 2.0 | 9.0 | 0.00 | 0.00 | 0.00 | 76 | 1011.4 |
| 20260905215529 | 89 | 258 | 3.0 | 8.0 | 0.00 | 0.00 | 0.00 | 77 | 1011.5 |
| 20260905215027 | 89 | 253 | 2.0 | 8.0 | 0.00 | 0.00 | 0.00 | 76 | 1011.6 |
| 20260905214552 | 89 | 226 | 3.0 | 8.0 | 0.00 | 0.00 | 0.00 | 76 | 1011.7 |
| 20260905214025 | 89 | 229 | 3.0 | 7.0 | 0.00 | 0.00 | 0.00 | 76 | 1011.8 |
| 20260905213525 | 89 | 243 | 1.0 | 5.0 | 0.00 | 0.00 | 0.00 | 76 | 1012.0 |
| 20260905213052 | 89 | 235 | 2.0 | 5.0 | 0.00 | 0.00 | 0.00 | 77 | 1011.9 |
| 20260905212525 | 89 | 263 | 2.0 | 5.0 | 0.00 | 0.00 | 0.00 | 76 | 1011.9 |
| 20260905212027 | 89 | 175 | 2.0 | 7.0 | 0.00 | 0.00 | 0.00 | 76 | 1011.9 |
| 20260905211550 | 89 | 257 | 2.0 | 7.0 | 0.00 | 0.00 | 0.00 | 76 | 1011.9 |
| 20260905211026 | 89 | 229 | 3.0 | 7.0 | 0.00 | 0.00 | 0.00 | 76 | 1011.9 |
| 20260905210523 | 88 | 219 | 2.0 | 10.0 | 0.00 | 0.00 | 0.00 | 78 | 1011.8 |
| 20260905210058 | 88 | 205 | 4.0 | 10.0 | 0.00 | 0.00 | 0.00 | 76 | 1011.7 |
| 20260905205529 | 89 | 287 | 4.0 | 10.0 | 0.00 | 0.00 | 0.00 | 76 | 1011.7 |
| 20260905205026 | 89 | 199 | 3.0 | 11.0 | 0.00 | 0.00 | 0.00 | 77 | 1011.6 |
| 20260905204552 | 89 | 197 | 4.0 | 11.0 | 0.00 | 0.00 | 0.00 | 77 | 1011.8 |
| 20260905204027 | 89 | 243 | 4.0 | 11.0 | 0.00 | 0.00 | 0.00 | 77 | 1011.8 |
| 20260905203527 | 89 | 199 | 3.0 | 11.0 | 0.00 | 0.00 | 0.00 | 76 | 1011.7 |
| 20260905203048 | 89 | 263 | 4.0 | 11.0 | 0.00 | 0.00 | 0.00 | 77 | 1011.9 |
| 20260905202526 | 89 | 166 | 4.0 | 9.0 | 0.00 | 0.00 | 0.00 | 76 | 1011.8 |
| 20260905202024 | 89 | 202 | 3.0 | 9.0 | 0.00 | 0.00 | 0.00 | 76 | 1011.9 |
| 20260905201549 | 89 | 169 | 3.0 | 9.0 | 0.00 | 0.00 | 0.00 | 77 | 1012.0 |
| 20260905201028 | 89 | 194 | 2.0 | 8.0 | 0.00 | 0.00 | 0.00 | 78 | 1012.0 |
| 20260905200526 | 88 | 215 | 3.0 | 9.0 | 0.00 | 0.00 | 0.00 | 78 | 1012.0 |
| 20260905200056 | 88 | 198 | 3.0 | 9.0 | 0.00 | 0.00 | 0.00 | 80 | 1012.1 |
| 20260905195534 | 88 | 246 | 4.0 | 9.0 | 0.00 | 0.00 | 0.00 | 80 | 1012.2 |
| 20260905195032 | 88 | 249 | 3.0 | 8.0 | 0.00 | 0.00 | 0.00 | 77 | 1012.3 |
| 20260905194552 | 89 | 211 | 3.0 | 8.0 | 0.00 | 0.00 | 0.00 | 78 | 1012.4 |
| 20260905194025 | 89 | 240 | 2.0 | 8.0 | 0.00 | 0.00 | 0.00 | 77 | 1012.6 |
| 20260905193528 | 89 | 209 | 3.0 | 9.0 | 0.00 | 0.00 | 0.00 | 77 | 1012.7 |
| 20260905193050 | 89 | 142 | 3.0 | 9.0 | 0.00 | 0.00 | 0.00 | 76 | 1012.8 |
| 20260905192527 | 89 | 203 | 4.0 | 9.0 | 0.00 | 0.00 | 0.00 | 76 | 1012.7 |
| 20260905192029 | 89 | 156 | 4.0 | 9.0 | 0.00 | 0.00 | 0.00 | 76 | 1012.9 |
| 20260905191547 | 89 | 231 | 3.0 | 10.0 | 0.00 | 0.00 | 0.00 | 76 | 1012.9 |
| 20260905191026 | 89 | 205 | 3.0 | 6.0 | 0.00 | 0.00 | 0.00 | 76 | 1012.9 |
| 20260905190527 | 89 | 232 | 2.0 | 8.0 | 0.00 | 0.00 | 0.00 | 77 | 1013.1 |
| 20260905185527 | 88 | 178 | 4.0 | 9.0 | 0.00 | 0.00 | 0.00 | 78 | 1013.0 |
| 20260905185025 | 88 | 259 | 3.0 | 10.0 | 0.00 | 0.00 | 0.00 | 78 | 1013.0 |
| 20260905184601 | 88 | 221 | 4.0 | 10.0 | 0.00 | 0.00 | 0.00 | 78 | 1013.1 |
| 20260905184025 | 89 | 244 | 4.0 | 9.0 | 0.00 | 0.00 | 0.00 | 76 | 1013.2 |
| 20260905183526 | 89 | 250 | 3.0 | 9.0 | 0.00 | 0.00 | 0.00 | 78 | 1013.5 |
| 20260905183057 | 89 | 240 | 2.0 | 8.0 | 0.00 | 0.00 | 0.00 | 77 | 1013.6 |
| 20260905182524 | 89 | 144 | 2.0 | 7.0 | 0.00 | 0.00 | 0.00 | 77 | 1013.5 |
| 20260905182025 | 89 | 167 | 3.0 | 9.0 | 0.00 | 0.00 | 0.00 | 77 | 1013.6 |
| 20260905181551 | 89 | 149 | 3.0 | 9.0 | 0.00 | 0.00 | 0.00 | 77 | 1013.7 |
| 20260905181026 | 89 | 207 | 3.0 | 9.0 | 0.00 | 0.00 | 0.00 | 77 | 1013.7 |
| 20260905180526 | 89 | 148 | 2.0 | 9.0 | 0.00 | 0.00 | 0.00 | 78 | 1013.7 |
| 20260905180048 | 88 | 166 | 3.0 | 8.0 | 0.00 | 0.00 | 0.00 | 77 | 1013.8 |
| 20260905175531 | 88 | 172 | 3.0 | 10.0 | 0.00 | 0.00 | 0.00 | 77 | 1013.8 |
| 20260905175028 | 88 | 209 | 5.0 | 10.0 | 0.00 | 0.00 | 0.00 | 78 | 1013.7 |
| 20260905174553 | 88 | 226 | 4.0 | 8.0 | 0.00 | 0.00 | 0.00 | 77 | 1013.9 |
| 20260905174024 | 88 | 255 | 2.0 | 10.0 | 0.00 | 0.00 | 0.00 | 76 | 1013.9 |
| 20260905173524 | 88 | 236 | 4.0 | 9.0 | 0.00 | 0.00 | 0.00 | 76 | 1013.9 |
| 20260905173050 | 88 | 241 | 4.0 | 10.0 | 0.00 | 0.00 | 0.00 | 78 | 1013.8 |
| 20260905172523 | 88 | 5 | 4.0 | 10.0 | 0.00 | 0.00 | 0.00 | 77 | 1013.9 |
| 20260905172030 | 89 | 246 | 4.0 | 10.0 | 0.00 | 0.00 | 0.00 | 75 | 1013.9 |
| 20260905171549 | 89 | 221 | 2.0 | 7.0 | 0.00 | 0.00 | 0.00 | 78 | 1014.0 |
| 20260905171026 | 88 | 244 | 2.0 | 10.0 | 0.00 | 0.00 | 0.00 | 76 | 1014.0 |
| 20260905170524 | 88 | 251 | 3.0 | 10.0 | 0.00 | 0.00 | 0.00 | 77 | 1014.0 |
| 20260905170053 | 88 | 242 | 3.0 | 10.0 | 0.00 | 0.00 | 0.00 | 78 | 1014.1 |
| 20260905165526 | 88 | 184 | 2.0 | 7.0 | 0.00 | 0.01 | 0.00 | 79 | 1014.0 |
| 20260905165026 | 88 | 277 | 3.0 | 7.0 | 0.00 | 0.01 | 0.00 | 79 | 1014.1 |
| 20260905164602 | 88 | 297 | 2.0 | 5.0 | 0.00 | 0.01 | 0.00 | 80 | 1014.2 |
| 20260905164026 | 87 | 266 | 2.0 | 7.0 | 0.00 | 0.01 | 0.00 | 81 | 1014.2 |
| 20260905163530 | 87 | 175 | 2.0 | 7.0 | 0.00 | 0.01 | 0.00 | 81 | 1014.2 |
| 20260905163052 | 87 | 272 | 3.0 | 7.0 | 0.00 | 0.01 | 0.00 | 83 | 1014.2 |
| 20260905162527 | 86 | 279 | 0.0 | 4.0 | 0.00 | 0.01 | 0.00 | 82 | 1014.1 |
| 20260905162025 | 86 | 0 | 0.0 | 2.0 | 0.00 | 0.01 | 0.00 | 83 | 1014.3 |
| 20260905161547 | 85 | 38 | 0.0 | 4.0 | 0.00 | 0.01 | 0.00 | 83 | 1014.3 |
| 20260905161025 | 85 | 38 | 0.0 | 4.0 | 0.00 | 0.01 | 0.00 | 83 | 1014.4 |
| 20260905160526 | 84 | 38 | 1.0 | 4.0 | 0.00 | 0.01 | 0.00 | 83 | 1014.4 |
| 20260905160109 | 84 | 26 | 2.0 | 5.0 | 0.00 | 0.01 | 0.00 | 84 | 1014.3 |
| 20260905155526 | 84 | 22 | 2.0 | 5.0 | 0.00 | 0.01 | 0.00 | 84 | 1014.4 |
| 20260905155027 | 85 | 0 | 0.0 | 5.0 | 0.00 | 0.01 | 0.00 | 83 | 1014.4 |
| 20260905154553 | 86 | 260 | 2.0 | 8.0 | 0.00 | 0.01 | 0.00 | 81 | 1014.4 |
| 20260905154024 | 87 | 25 | 2.0 | 8.0 | 0.00 | 0.01 | 0.00 | 81 | 1014.3 |
| 20260905153524 | 88 | 254 | 2.0 | 7.0 | 0.00 | 0.01 | 0.00 | 80 | 1014.3 |
| 20260905153059 | 88 | 153 | 2.0 | 7.0 | 0.00 | 0.01 | 0.00 | 80 | 1014.2 |
| 20260905152524 | 88 | 165 | 2.0 | 5.0 | 0.00 | 0.01 | 0.00 | 81 | 1014.0 |
| 20260905152024 | 88 | 170 | 2.0 | 5.0 | 0.00 | 0.01 | 0.00 | 81 | 1014.0 |
| 20260905151559 | 87 | 157 | 2.0 | 7.0 | 0.00 | 0.01 | 0.00 | 81 | 1014.1 |
| 20260905151026 | 87 | 188 | 1.0 | 7.0 | 0.00 | 0.01 | 0.00 | 82 | 1014.1 |
| 20260905150527 | 87 | 226 | 3.0 | 7.0 | 0.00 | 0.01 | 0.00 | 80 | 1014.2 |
| 20260905150055 | 87 | 196 | 2.0 | 4.0 | 0.00 | 0.01 | 0.00 | 80 | 1014.1 |
| 20260905145527 | 87 | 128 | 2.0 | 6.0 | 0.00 | 0.02 | 0.00 | 80 | 1014.1 |
| 20260905145026 | 87 | 193 | 2.0 | 6.0 | 0.00 | 0.02 | 0.00 | 82 | 1014.2 |
| 20260905144552 | 87 | 192 | 1.0 | 6.0 | 0.00 | 0.02 | 0.00 | 82 | 1014.2 |
| 20260905144027 | 86 | 196 | 1.0 | 6.0 | 0.00 | 0.02 | 0.00 | 83 | 1014.2 |
| 20260905143528 | 86 | 0 | 1.0 | 5.0 | 0.00 | 0.02 | 0.00 | 84 | 1014.3 |
| 20260905143052 | 86 | 301 | 2.0 | 5.0 | 0.00 | 0.02 | 0.00 | 84 | 1014.2 |
| 20260905142532 | 86 | 238 | 1.0 | 4.0 | 0.00 | 0.02 | 0.00 | 83 | 1014.1 |
| 20260905142024 | 86 | 250 | 1.0 | 5.0 | 0.00 | 0.02 | 0.00 | 86 | 1014.1 |
| 20260905141559 | 86 | 283 | 1.0 | 7.0 | 0.00 | 0.02 | 0.00 | 85 | 1014.1 |
| 20260905141027 | 86 | 0 | 3.0 | 7.0 | 0.00 | 0.02 | 0.00 | 84 | 1014.2 |
| 20260905140527 | 85 | 215 | 0.0 | 6.0 | 0.00 | 0.02 | 0.00 | 85 | 1014.0 |
| 20260905140104 | 85 | 0 | 1.0 | 6.0 | 0.00 | 0.02 | 0.00 | 86 | 1014.0 |
| 20260905135524 | 85 | 263 | 2.0 | 4.0 | 0.00 | 0.02 | 0.00 | 86 | 1013.9 |
| 20260905135023 | 85 | 355 | 0.0 | 2.0 | 0.00 | 0.02 | 0.00 | 88 | 1013.9 |
| 20260905134553 | 85 | 0 | 0.0 | 2.0 | 0.00 | 0.02 | 0.00 | 88 | 1013.9 |
| 20260905134024 | 84 | 0 | 0.0 | 3.0 | 0.00 | 0.02 | 0.00 | 89 | 1013.8 |
| 20260905133523 | 84 | 355 | 1.0 | 3.0 | 0.00 | 0.02 | 0.00 | 90 | 1013.9 |
| 20260905133049 | 83 | 0 | 0.0 | 3.0 | 0.00 | 0.02 | 0.00 | 93 | 1013.9 |
| 20260905132524 | 83 | 0 | 0.0 | 3.0 | 0.00 | 0.02 | 0.00 | 94 | 1013.8 |
| 20260905132023 | 82 | 0 | 0.0 | 2.0 | 0.00 | 0.02 | 0.00 | 95 | 1013.8 |
| 20260905131604 | 82 | 0 | 0.0 | 1.0 | 0.00 | 0.02 | 0.00 | 97 | 1013.7 |
| 20260905131027 | 81 | 0 | 0.0 | 2.0 | 0.00 | 0.02 | 0.00 | 98 | 1013.8 |
| 20260905130526 | 80 | 0 | 0.0 | 2.0 | 0.00 | 0.02 | 0.00 | 98 | 1013.9 |
| 20260905130052 | 80 | 0 | 0.0 | 2.0 | 0.00 | 0.02 | 0.00 | 99 | 1013.9 |
| 20260905125527 | 80 | 0 | 0.0 | 2.0 | 0.00 | 0.02 | 0.00 | 99 | 1013.8 |
| 20260905125026 | 80 | 0 | 0.0 | 2.0 | 0.00 | 0.02 | 0.00 | 99 | 1013.7 |
| 20260905124554 | 79 | 0 | 0.0 | 2.0 | 0.00 | 0.02 | 0.00 | 100 | 1013.6 |
| 20260905124023 | 79 | 0 | 0.0 | 0.0 | 0.00 | 0.02 | 0.00 | 100 | 1013.7 |
| 20260905123523 | 79 | 0 | 0.0 | 0.0 | 0.00 | 0.02 | 0.00 | 100 | 1013.6 |
| 20260905123048 | 78 | 0 | 0.0 | 0.0 | 0.00 | 0.02 | 0.00 | 100 | 1013.6 |
| 20260905122525 | 78 | 0 | 0.0 | 0.0 | 0.00 | 0.02 | 0.00 | 99 | 1013.6 |
| 20260905122023 | 78 | 0 | 0.0 | 0.0 | 0.00 | 0.02 | 0.00 | 99 | 1013.7 |
| 20260905121555 | 78 | 0 | 0.0 | 0.0 | 0.00 | 0.02 | 0.00 | 99 | 1013.7 |
| 20260905121026 | 77 | 0 | 0.0 | 0.0 | 0.00 | 0.02 | 0.00 | 99 | 1013.5 |
| 20260905120527 | 77 | 0 | 0.0 | 0.0 | 0.00 | 0.02 | 0.00 | 99 | 1013.5 |
| 20260905120100 | 77 | 0 | 0.0 | 0.0 | 0.00 | 0.02 | 0.00 | 99 | 1013.4 |
| 20260905115530 | 77 | 0 | 0.0 | 0.0 | 0.00 | 0.02 | 0.00 | 99 | 1013.3 |
| 20260905115026 | 77 | 0 | 0.0 | 0.0 | 0.00 | 0.02 | 0.00 | 99 | 1013.4 |
| 20260905114547 | 77 | 0 | 0.0 | 0.0 | 0.00 | 0.02 | 0.00 | 99 | 1013.3 |
| 20260905114028 | 77 | 0 | 0.0 | 0.0 | 0.00 | 0.02 | 0.00 | 99 | 1013.3 |
| 20260905113531 | 77 | 0 | 0.0 | 0.0 | 0.00 | 0.02 | 0.00 | 99 | 1013.3 |
| 20260905113057 | 77 | 0 | 0.0 | 0.0 | 0.00 | 0.02 | 0.00 | 99 | 1013.3 |
| 20260905112526 | 77 | 0 | 0.0 | 0.0 | 0.00 | 0.02 | 0.00 | 99 | 1013.3 |
| 20260905112027 | 77 | 0 | 0.0 | 0.0 | 0.00 | 0.02 | 0.00 | 99 | 1013.3 |
| 20260905111609 | 77 | 0 | 0.0 | 0.0 | 0.00 | 0.02 | 0.00 | 99 | 1013.3 |
| 20260905111028 | 77 | 0 | 0.0 | 0.0 | 0.00 | 0.02 | 0.00 | 99 | 1013.2 |
| 20260905110524 | 77 | 0 | 0.0 | 0.0 | 0.00 | 0.02 | 0.00 | 99 | 1013.1 |
| 20260905110057 | 77 | 0 | 0.0 | 0.0 | 0.00 | 0.02 | 0.00 | 98 | 1013.1 |
| 20260905105526 | 77 | 0 | 0.0 | 0.0 | 0.00 | 0.02 | 0.00 | 98 | 1013.0 |
| 20260905105023 | 77 | 0 | 0.0 | 1.0 | 0.00 | 0.02 | 0.00 | 98 | 1013.0 |
| 20260905104546 | 77 | 0 | 0.0 | 1.0 | 0.00 | 0.02 | 0.00 | 98 | 1013.0 |
| 20260905104025 | 77 | 0 | 0.0 | 1.0 | 0.00 | 0.02 | 0.00 | 98 | 1012.9 |
| 20260905103527 | 77 | 0 | 0.0 | 1.0 | 0.00 | 0.02 | 0.00 | 98 | 1012.9 |
| 20260905103048 | 77 | 0 | 0.0 | 1.0 | 0.00 | 0.02 | 0.00 | 98 | 1013.0 |
| 20260905102524 | 77 | 0 | 0.0 | 0.0 | 0.00 | 0.02 | 0.00 | 98 | 1013.0 |
| 20260905102026 | 77 | 0 | 0.0 | 0.0 | 0.00 | 0.02 | 0.00 | 98 | 1012.9 |
| 20260905101554 | 77 | 0 | 0.0 | 0.0 | 0.00 | 0.02 | 0.00 | 98 | 1013.0 |
| 20260905101026 | 78 | 0 | 0.0 | 0.0 | 0.00 | 0.02 | 0.00 | 98 | 1012.8 |
| 20260905100527 | 78 | 0 | 0.0 | 0.0 | 0.00 | 0.02 | 0.00 | 98 | 1012.8 |
| 20260905100053 | 78 | 0 | 0.0 | 0.0 | 0.00 | 0.02 | 0.00 | 98 | 1012.8 |
| 20260905095524 | 78 | 0 | 0.0 | 0.0 | 0.00 | 0.02 | 0.00 | 98 | 1012.9 |
| 20260905095024 | 78 | 0 | 0.0 | 0.0 | 0.00 | 0.02 | 0.00 | 97 | 1012.9 |
| 20260905094553 | 78 | 0 | 0.0 | 0.0 | 0.00 | 0.02 | 0.00 | 97 | 1012.8 |
| 20260905094023 | 78 | 0 | 0.0 | 0.0 | 0.00 | 0.02 | 0.00 | 97 | 1012.9 |
| 20260905093524 | 78 | 0 | 0.0 | 0.0 | 0.00 | 0.02 | 0.00 | 97 | 1012.9 |
| 20260905093047 | 78 | 0 | 0.0 | 0.0 | 0.00 | 0.02 | 0.00 | 97 | 1012.9 |
| 20260905092523 | 78 | 0 | 0.0 | 0.0 | 0.00 | 0.02 | 0.00 | 97 | 1012.9 |
| 20260905092028 | 78 | 0 | 0.0 | 0.0 | 0.00 | 0.02 | 0.00 | 97 | 1013.0 |
| 20260905091554 | 79 | 0 | 0.0 | 0.0 | 0.00 | 0.02 | 0.00 | 97 | 1012.8 |
| 20260905091024 | 79 | 0 | 0.0 | 0.0 | 0.00 | 0.02 | 0.00 | 96 | 1012.9 |
| 20260905090526 | 79 | 0 | 0.0 | 0.0 | 0.00 | 0.02 | 0.00 | 96 | 1012.9 |
| 20260905090052 | 79 | 0 | 0.0 | 0.0 | 0.00 | 0.02 | 0.00 | 96 | 1012.9 |
| 20260905085527 | 79 | 0 | 0.0 | 0.0 | 0.00 | 0.02 | 0.00 | 96 | 1012.9 |
| 20260905085023 | 79 | 0 | 0.0 | 0.0 | 0.00 | 0.02 | 0.00 | 96 | 1013.0 |
| 20260905084600 | 79 | 0 | 0.0 | 0.0 | 0.00 | 0.02 | 0.00 | 96 | 1012.9 |
| 20260905084027 | 80 | 0 | 0.0 | 0.0 | 0.00 | 0.02 | 0.00 | 95 | 1012.8 |
| 20260905083531 | 80 | 0 | 0.0 | 0.0 | 0.00 | 0.02 | 0.00 | 95 | 1012.8 |
| 20260905083047 | 80 | 0 | 0.0 | 1.0 | 0.00 | 0.02 | 0.00 | 95 | 1012.8 |
| 20260905082528 | 80 | 0 | 0.0 | 1.0 | 0.00 | 0.02 | 0.00 | 94 | 1012.7 |
| 20260905082027 | 80 | 0 | 0.0 | 1.0 | 0.00 | 0.02 | 0.00 | 94 | 1012.7 |
| 20260905081552 | 80 | 0 | 0.0 | 1.0 | 0.00 | 0.02 | 0.00 | 93 | 1012.7 |
| 20260905081030 | 80 | 0 | 0.0 | 2.0 | 0.00 | 0.02 | 0.00 | 92 | 1012.7 |
| 20260905080523 | 80 | 0 | 0.0 | 2.0 | 0.00 | 0.02 | 0.00 | 92 | 1012.7 |
| 20260905080054 | 81 | 0 | 0.0 | 1.0 | 0.00 | 0.02 | 0.00 | 92 | 1012.7 |
| 20260905075523 | 81 | 290 | 0.0 | 1.0 | 0.00 | 0.02 | 0.00 | 92 | 1012.6 |
| 20260905075027 | 81 | 0 | 0.0 | 2.0 | 0.00 | 0.02 | 0.00 | 92 | 1012.7 |
| 20260905074554 | 81 | 0 | 0.0 | 2.0 | 0.00 | 0.02 | 0.00 | 92 | 1012.7 |
| 20260905074023 | 81 | 0 | 0.0 | 2.0 | 0.00 | 0.02 | 0.00 | 92 | 1012.7 |
| 20260905073528 | 81 | 0 | 0.0 | 2.0 | 0.00 | 0.02 | 0.00 | 92 | 1012.8 |
| 20260905073103 | 81 | 0 | 0.0 | 2.0 | 0.00 | 0.02 | 0.00 | 92 | 1012.7 |
| 20260905072524 | 81 | 0 | 0.0 | 2.0 | 0.00 | 0.02 | 0.00 | 92 | 1012.7 |
| 20260905072023 | 81 | 0 | 0.0 | 2.0 | 0.00 | 0.02 | 0.00 | 93 | 1012.6 |
| 20260905071553 | 81 | 0 | 0.0 | 2.0 | 0.00 | 0.02 | 0.00 | 93 | 1012.6 |
| 20260905071026 | 80 | 0 | 0.0 | 1.0 | 0.00 | 0.02 | 0.00 | 93 | 1012.5 |
| 20260905070523 | 80 | 0 | 0.0 | 2.0 | 0.00 | 0.02 | 0.00 | 94 | 1012.6 |
| 20260905070053 | 80 | 186 | 0.0 | 2.0 | 0.00 | 0.02 | 0.00 | 94 | 1012.6 |
| 20260905065528 | 80 | 184 | 0.0 | 2.0 | 0.00 | 0.02 | 0.00 | 95 | 1012.5 |
| 20260905065027 | 79 | 0 | 0.0 | 2.0 | 0.00 | 0.02 | 0.00 | 95 | 1012.5 |
| 20260905064546 | 79 | 0 | 0.0 | 1.0 | 0.00 | 0.02 | 0.00 | 96 | 1012.5 |
| 20260905064029 | 79 | 0 | 0.0 | 1.0 | 0.00 | 0.02 | 0.00 | 96 | 1012.5 |
| 20260905063524 | 79 | 0 | 0.0 | 1.0 | 0.00 | 0.02 | 0.00 | 96 | 1012.4 |
| 20260905063056 | 79 | 0 | 0.0 | 1.0 | 0.00 | 0.02 | 0.00 | 97 | 1012.3 |
| 20260905062530 | 79 | 0 | 0.0 | 0.0 | 0.00 | 0.02 | 0.00 | 97 | 1012.4 |
| 20260905062026 | 79 | 0 | 0.0 | 2.0 | 0.00 | 0.02 | 0.00 | 97 | 1012.7 |
| 20260905061551 | 78 | 0 | 0.0 | 2.0 | 0.00 | 0.02 | 0.00 | 98 | 1012.7 |
| 20260905061025 | 78 | 0 | 0.0 | 2.0 | 0.00 | 0.02 | 0.00 | 98 | 1012.8 |
| 20260905060527 | 78 | 0 | 0.0 | 2.0 | 0.00 | 0.02 | 0.00 | 97 | 1012.7 |
| 20260905060053 | 78 | 0 | 0.0 | 0.0 | 0.00 | 0.02 | 0.00 | 97 | 1012.7 |
| 20260905055524 | 78 | 0 | 0.0 | 0.0 | 0.00 | 0.02 | 0.00 | 97 | 1012.7 |
| 20260905055025 | 78 | 0 | 0.0 | 0.0 | 0.00 | 0.02 | 0.00 | 97 | 1012.7 |
| 20260905054551 | 78 | 0 | 0.0 | 0.0 | 0.00 | 0.02 | 0.00 | 97 | 1012.7 |
| 20260905054027 | 78 | 0 | 0.0 | 0.0 | 0.00 | 0.02 | 0.00 | 97 | 1012.8 |
| 20260905053529 | 78 | 0 | 0.0 | 0.0 | 0.00 | 0.02 | 0.00 | 97 | 1012.8 |
| 20260905053100 | 78 | 0 | 0.0 | 0.0 | 0.00 | 0.02 | 0.00 | 97 | 1012.8 |
| 20260905052524 | 79 | 0 | 0.0 | 0.0 | 0.00 | 0.02 | 0.00 | 97 | 1012.9 |
| 20260905052024 | 79 | 0 | 0.0 | 0.0 | 0.00 | 0.02 | 0.00 | 97 | 1013.0 |
| 20260905051554 | 79 | 0 | 0.0 | 0.0 | 0.00 | 0.02 | 0.00 | 97 | 1013.1 |
| 20260905051023 | 79 | 0 | 0.0 | 0.0 | 0.00 | 0.02 | 0.00 | 97 | 1013.1 |
| 20260905050527 | 79 | 0 | 0.0 | 0.0 | 0.00 | 0.02 | 0.00 | 97 | 1013.1 |
| 20260905050054 | 79 | 0 | 0.0 | 0.0 | 0.00 | 0.02 | 0.00 | 97 | 1013.1 |
| 20260905045527 | 79 | 0 | 0.0 | 0.0 | 0.00 | 0.08 | 0.02 | 96 | 1013.3 |
| 20260905045024 | 79 | 0 | 0.0 | 1.0 | 0.00 | 0.08 | 0.02 | 96 | 1013.3 |
| 20260905044553 | 79 | 0 | 0.0 | 1.0 | 0.00 | 0.08 | 0.02 | 96 | 1013.3 |
| 20260905044023 | 79 | 0 | 0.0 | 0.0 | 0.00 | 0.08 | 0.02 | 96 | 1013.5 |
| 20260905043523 | 79 | 0 | 0.0 | 0.0 | 0.00 | 0.08 | 0.02 | 96 | 1013.5 |
| 20260905043046 | 79 | 0 | 0.0 | 0.0 | 0.00 | 0.08 | 0.02 | 96 | 1013.5 |
| 20260905042527 | 80 | 0 | 0.0 | 0.0 | 0.00 | 0.08 | 0.02 | 95 | 1013.6 |
| 20260905042026 | 80 | 0 | 0.0 | 0.0 | 0.00 | 0.08 | 0.02 | 95 | 1013.5 |
| 20260905041553 | 80 | 0 | 0.0 | 0.0 | 0.00 | 0.08 | 0.02 | 95 | 1013.5 |
| 20260905041025 | 80 | 0 | 0.0 | 0.0 | 0.00 | 0.08 | 0.02 | 95 | 1013.6 |
| 20260905040526 | 80 | 0 | 0.0 | 0.0 | 0.00 | 0.08 | 0.02 | 95 | 1013.5 |
| 20260905040051 | 80 | 0 | 0.0 | 1.0 | 0.00 | 0.08 | 0.02 | 95 | 1013.6 |
| 20260905035525 | 80 | 0 | 0.0 | 1.0 | 0.00 | 0.08 | 0.02 | 94 | 1013.5 |
| 20260905035028 | 80 | 0 | 0.0 | 1.0 | 0.00 | 0.08 | 0.02 | 94 | 1013.6 |
| 20260905034556 | 80 | 0 | 0.0 | 1.0 | 0.00 | 0.08 | 0.02 | 94 | 1013.6 |
| 20260905034027 | 80 | 0 | 0.0 | 0.0 | 0.00 | 0.08 | 0.02 | 95 | 1013.6 |
| 20260905033526 | 80 | 0 | 0.0 | 0.0 | 0.00 | 0.08 | 0.02 | 95 | 1013.6 |
| 20260905033100 | 80 | 0 | 0.0 | 0.0 | 0.00 | 0.08 | 0.02 | 95 | 1013.7 |
| 20260905032524 | 80 | 0 | 0.0 | 0.0 | 0.00 | 0.08 | 0.02 | 95 | 1013.8 |
| 20260905032025 | 80 | 0 | 0.0 | 0.0 | 0.00 | 0.08 | 0.02 | 95 | 1013.8 |
| 20260905031554 | 80 | 0 | 0.0 | 0.0 | 0.00 | 0.08 | 0.02 | 95 | 1013.8 |
| 20260905031027 | 80 | 0 | 0.0 | 0.0 | 0.00 | 0.08 | 0.02 | 95 | 1013.8 |
| 20260905030526 | 80 | 0 | 0.0 | 0.0 | 0.00 | 0.08 | 0.02 | 95 | 1013.8 |
| 20260905030050 | 80 | 0 | 0.0 | 0.0 | 0.00 | 0.08 | 0.02 | 94 | 1013.7 |
| 20260905025526 | 80 | 0 | 0.0 | 0.0 | 0.00 | 0.08 | 0.02 | 94 | 1013.9 |
| 20260905025026 | 80 | 0 | 0.0 | 1.0 | 0.00 | 0.08 | 0.02 | 94 | 1013.8 |
| 20260905024547 | 80 | 0 | 0.0 | 1.0 | 0.00 | 0.08 | 0.02 | 94 | 1014.0 |
| 20260905024029 | 80 | 0 | 0.0 | 1.0 | 0.00 | 0.08 | 0.02 | 94 | 1014.1 |
| 20260905023524 | 80 | 0 | 0.0 | 0.0 | 0.00 | 0.08 | 0.02 | 94 | 1014.0 |
| 20260905023102 | 80 | 0 | 0.0 | 0.0 | 0.00 | 0.08 | 0.02 | 94 | 1013.9 |
| 20260905022527 | 80 | 0 | 0.0 | 0.0 | 0.00 | 0.08 | 0.02 | 93 | 1013.9 |
| 20260905022026 | 80 | 0 | 0.0 | 0.0 | 0.00 | 0.08 | 0.02 | 93 | 1013.8 |
| 20260905021553 | 80 | 0 | 0.0 | 0.0 | 0.00 | 0.08 | 0.02 | 93 | 1013.7 |
| 20260905021028 | 81 | 0 | 0.0 | 0.0 | 0.00 | 0.08 | 0.02 | 92 | 1013.7 |
| 20260905020526 | 81 | 0 | 0.0 | 0.0 | 0.00 | 0.08 | 0.02 | 92 | 1013.7 |
| 20260905020104 | 81 | 0 | 0.0 | 0.0 | 0.00 | 0.08 | 0.02 | 91 | 1013.6 |
| 20260905015527 | 81 | 0 | 0.0 | 0.0 | 0.00 | 0.08 | 0.02 | 91 | 1013.6 |
| 20260905015030 | 82 | 0 | 0.0 | 0.0 | 0.00 | 0.08 | 0.02 | 91 | 1013.6 |
| 20260905014548 | 82 | 0 | 0.0 | 0.0 | 0.00 | 0.08 | 0.02 | 90 | 1013.6 |
| 20260905014026 | 82 | 0 | 0.0 | 1.0 | 0.00 | 0.08 | 0.02 | 89 | 1013.6 |
| 20260905013526 | 82 | 0 | 0.0 | 1.0 | 0.00 | 0.08 | 0.02 | 89 | 1013.5 |
| 20260905013046 | 82 | 0 | 0.0 | 1.0 | 0.00 | 0.08 | 0.02 | 88 | 1013.5 |
| 20260905012526 | 82 | 0 | 0.0 | 1.0 | 0.00 | 0.08 | 0.02 | 88 | 1013.4 |
| 20260905012024 | 82 | 0 | 0.0 | 1.0 | 0.00 | 0.08 | 0.02 | 88 | 1013.3 |
| 20260905011602 | 83 | 0 | 0.0 | 1.0 | 0.00 | 0.08 | 0.02 | 88 | 1013.2 |
| 20260905011027 | 83 | 0 | 0.0 | 2.0 | 0.00 | 0.08 | 0.02 | 88 | 1013.3 |
| 20260905010527 | 83 | 0 | 0.0 | 5.0 | 0.00 | 0.08 | 0.02 | 88 | 1013.4 |
| 20260905010051 | 83 | 0 | 0.0 | 5.0 | 0.00 | 0.08 | 0.02 | 88 | 1013.3 |
| 20260905005526 | 83 | 192 | 1.0 | 5.0 | 0.00 | 0.08 | 0.02 | 88 | 1013.2 |
| 20260905005026 | 83 | 0 | 0.0 | 4.0 | 0.00 | 0.08 | 0.02 | 88 | 1013.3 |
| 20260905004552 | 83 | 0 | 0.0 | 3.0 | 0.00 | 0.08 | 0.02 | 88 | 1013.1 |
| 20260905004027 | 83 | 188 | 0.0 | 3.0 | 0.00 | 0.08 | 0.02 | 88 | 1013.1 |